Home > Weather > Cali > Past weeks

Flag for Colombia Past Weather in Cali, Colombia — Yesterday and Last 2 Weeks

Now
75 °F

Broken clouds.


Feels Like: 77 °F
Forecast: 69 / 80 °F
Wind: No wind

Location: Cali / Alfonso Bonillaaragon

Current Time: May 31, 2016 at 7:01:49 PM

Latest Report: May 31, 2016 at 6:00 PM


Visibility: N/A

Pressure: 29.94 "Hg (26.83 "Hg at 955m altitude)

Humidity: 74%

Dew Point: 66 °F

Location of CaliLocation

Past Weather in Cali — Graph

°F

Cali Temperature Yesterday

Maximum temperature yesterday: 86 °F (at 1:00 PM)
Minimum temperature yesterday: 68 °F (at 5:00 AM)
Average temperature yesterday: 76 °F

High & Low Weather Summary for the Past Weeks

 TemperatureHumidityPressure
High91 °F (May 25, 2:00 PM)100% (May 17, 6:00 AM)30.12 "Hg (May 17, 6:00 AM)
Low64 °F (May 27, 3:00 AM)44% (May 25, 3:00 PM)29.65 "Hg (May 24, 7:00 AM)
Average76 °F81%29.99 "Hg
* Reported May 16 6:00 PM — May 31 6:00 PM, Cali, Weather by CustomWeather, © 2016

Note: Actual official high and low records may vary slightly from our data, if they occured in-between our weather recording intervals... More about our weather records

Advertising

Cali Weather History for the Previous 24 Hours

Scroll right to see more
 ConditionsComfort  
Time TempWeatherWind HumidityBarometerVisibility
6:00 PM
Tue, May 31
75 °FBroken clouds.No wind74%29.94 "HgN/A
5:00 PM79 °FScattered showers. Broken clouds.9 mph70%29.92 "HgN/A
4:00 PM81 °FScattered showers. Broken clouds.7 mph66%29.92 "HgN/A
3:00 PM84 °FScattered showers. Broken clouds.5 mph55%29.92 "HgN/A
2:00 PM84 °FScattered clouds.5 mph58%29.95 "HgN/A
1:00 PM82 °FScattered clouds.6 mph58%29.98 "HgN/A
12:00 PM79 °FPartly sunny.3 mph70%30.02 "HgN/A
11:00 AM79 °FBroken clouds.5 mph70%30.04 "HgN/A
10:00 AM75 °FBroken clouds.3 mph78%30.07 "HgN/A
9:30 AM72 °FBroken clouds.5 mph94%30.07 "HgN/A
9:00 AM70 °FPartly sunny.3 mph100%30.07 "HgN/A
8:00 AM68 °FFog.5 mph100%30.06 "Hg2 mi
7:00 AM64 °FMild.6 mph100%30.05 "HgN/A
6:00 AM64 °FDrizzle. Broken clouds.6 mph100%30.04 "Hg2 mi
5:00 AM68 °FPartly cloudy.2 mph100%30.02 "Hg3 mi
4:00 AM68 °FHeavy rain. Partly cloudy.2 mph100%30.00 "Hg2 mi
3:00 AM68 °FThunderstorms. Partly cloudy.3 mph100%29.98 "Hg3 mi
2:00 AM70 °FStrong thunderstorms. Partly cloudy.5 mph94%29.99 "Hg3 mi
1:00 AM72 °FThunderstorms. Overcast.N/A88%29.98 "HgN/A
12:00 AM72 °FPassing clouds.7 mph88%29.99 "HgN/A
11:00 PM
Mon, May 30
73 °FPassing clouds.12 mph83%29.99 "HgN/A
10:00 PM73 °FPassing clouds.3 mph83%29.98 "HgN/A
9:00 PM75 °FPassing clouds.9 mph78%29.96 "HgN/A
8:00 PM75 °FPassing clouds.7 mph78%29.94 "HgN/A
7:00 PM77 °FPassing clouds.12 mph74%29.92 "HgN/A
Weather by CustomWeather, © 2016

See weather overviewHow to use our weather pages